Location: Podia
(1.5569°N, 32.3469°E)
Time: 15:14:31
(UTC+00:00)

BLOCK DM-SL R/B - Pass Details

Date: 01 June 2020
Orbit: 675 x 35821 km, 0.8° (Epoch: 05 July)

Event Time Altitude Azimuth Distance (km) Brightness Sun altitude
Rises 16:42:45 0° 268° (W) 3,012 7.4 -11.9°
Reaches altitude 10° 16:44:24 10° 267° (W) 2,208 6.5 -12.3°
Maximum altitude 16:48:34 83° 180° (S) 1,091 3.7 -13.3°
Enters shadow 16:59:57 14° 92° (E) 5,815 6.9 -15.9°
